Location: Buckhorn Peak
(37.6641°N, 120.1241°W)
Time: 12:20:51
(UTC+00:00)

S3M - Pass Details

Date: 05 August 2024
Orbit: 949 x 1003 km, 83.0° (Epoch: 15 September)

Event Time Altitude Azimuth Distance (km) Brightness Sun altitude
Rises 12:14:29 0° 190° (S) 3,678 6.6 -10.4°
Reaches altitude 10° 12:17:01 10° 191° (SSW) 2,726 6.0 -9.9°
Maximum altitude 12:23:15 75° 277° (W) 1,006 4.0 -8.9°
Drops below altitude 10° 12:29:27 10° 3° (N) 2,704 6.8 -7.8°
Sets 12:31:57 0° 5° (N) 3,647 7.5 -7.3°
